Location: Unspecified
(0.0000°N, 0.0000°E)
Time: 11:28:14
(UTC+00:00)

Vanguard 2 - Pass Details

Date: 07 October 2022
Orbit: 553 x 2933 km, 32.9° (Epoch: 29 November)

Event Time Altitude Azimuth Distance (km) Brightness Sun altitude
Rises 20:39:03 0° 295° (WNW) 6,778 13.0 -42.6°
Reaches altitude 10° 20:43:49 10° 291° (WNW) 5,737 12.4 -43.7°
Maximum altitude 21:00:30 54° 218° (SW) 2,829 10.3 -47.9°
Enters shadow 21:02:36 51° 193° (SSW) 2,790 10.2 -48.4°
